Wetbulb
51.54 51.52 51.64 51.74 51.69 51.47 50.93 49.98 48.52 48.01 48.07 47.21 47.67 48.87 50.20 47.99 46.87 45.62 43.94 49.16 42.40 38.39 40.58 43.69 45.54 42.90 43.53 44.54 40.65 44.78 43.92 44.56 42.30 38.56 37.57 37.67 37.32 39.54 38.53 39.93 37.91 35.69 34.95 34.34 34.98 32.00 29.36 44.93 43.00 35.39 40.25 44.59 44.45 44.08
51.16 51.19 51.01 51.14 51.28 51.28 50.93 49.68 48.31 48.08 48.26 46.97 47.75 48.63 50.54 48.26 46.78 46.42 41.70 48.64 47.55 40.48 39.89 45.55 45.67 47.62 47.15 47.35 44.55 46.18 43.52 43.52 42.31 38.76 40.68 40.06 36.39 38.75 38.33 34.05 43.19 35.89 38.41 35.02 36.16 36.28 44.16 45.55 42.29 45.05 45.86 43.89 44.00 43.84
51.40 51.40 51.14 50.85 50.98 50.96 50.76 49.54 48.32 48.23 48.38 46.88 47.55 48.92 50.32 48.58 46.49 46.45 43.43 44.87 43.90 40.28 41.20 43.01 44.59 49.61 50.94 50.31 51.73 42.79 45.59 46.58 45.46 47.37 41.16 39.79 36.77 41.51 36.67 37.76 38.53 40.46 41.32 38.32 37.20 40.32 41.91 42.59 44.21 44.70 45.63 44.72 45.24 45.92
50.68 51.01 50.92 50.80 50.85 50.67 50.62 49.37 48.56 48.22 48.32 46.86 46.81 47.52 48.72 47.61 45.64 46.34 43.87 45.75 44.48 40.89 36.44 42.76 51.80 48.49 52.16 51.53 50.46 50.51 47.91 48.14 47.64 45.03 41.55 40.21 38.41 44.12 39.48 40.18 37.81 38.25 39.56 36.34 36.96 40.92 40.22 40.97 42.35 44.39 45.17 45.58 45.31 44.83
50.36 50.47 50.68 50.60 50.60 50.63 50.33 49.24 48.64 48.26 48.00 46.88 46.90 47.60 48.77 46.48 45.15 46.41 45.50 45.37 46.17 40.51 35.90 38.51 44.97 47.81 51.23 50.79 49.15 49.60 47.72 45.75 43.17 39.75 39.34 38.00 42.92 42.49 42.31 41.89 35.93 39.42 36.59 33.71 32.87 39.34 38.81 40.32 43.44 45.07 43.75 43.82 43.91 41.91
50.20 50.25 50.29 50.36 50.40 50.44 50.15 48.97 48.53 48.17 47.54 47.03 47.04 48.16 48.26 45.79 45.55 42.93 39.57 44.99 46.03 46.19 38.64 34.48 45.39 47.88 49.58 49.63 48.79 48.06 47.62 44.54 43.51 38.86 38.59 42.59 45.45 41.90 36.33 34.42 38.56 40.85 41.28 40.40 37.25 41.24 42.14 44.19 44.78 45.84 44.15 42.70 42.36 41.99
49.79 49.91 50.04 50.50 50.54 50.26 49.99 48.91 48.64 48.12 47.33 46.90 47.21 47.82 46.89 45.53 44.47 40.06 39.60 42.81 45.72 46.12 39.46 35.68 39.25 47.01 49.01 48.51 48.10 46.62 48.30 45.22 42.59 39.76 39.34 41.52 42.59 41.89 37.60 35.44 40.10 40.99 40.82 40.72 42.47 43.08 40.84 43.08 42.11 45.39 44.40 43.32 43.45 41.78
49.65 49.68 49.82 49.86 50.08 50.26 49.95 49.06 48.51 47.90 47.40 46.90 46.85 47.35 45.42 44.61 42.93 40.23 44.45 45.79 45.89 44.04 42.09 34.95 37.01 43.25 49.20 44.10 42.63 49.44 44.88 44.17 42.97 42.77 44.02 42.09 41.56 42.23 37.12 38.63 40.67 39.22 38.39 39.97 41.39 43.40 43.59 45.41 45.92 44.80 44.27 43.50 40.79 38.79
49.50 49.73 49.89 49.77 49.84 49.99 49.52 48.95 48.37 47.72 47.03 46.73 47.16 45.44 43.13 41.61 39.19 42.67 47.56 48.33 47.33 43.52 36.15 36.30 35.82 38.41 48.28 45.38 46.13 45.97 47.31 40.71 45.67 39.65 39.57 39.53 39.24 35.26 37.74 38.50 37.15 36.91 37.08 38.43 42.15 42.39 43.23 43.52 44.81 43.49 43.26 42.54 39.99 38.47
49.30 49.70 49.69 49.77 49.86 49.70 49.14 48.86 47.96 47.35 47.03 46.30 43.79 40.45 37.75 42.53 46.68 47.66 42.90 39.98 39.62 40.09 39.06 36.43 41.74 38.91 44.76 43.20 42.01 42.21 43.86 40.74 36.80 36.68 39.71 37.59 37.03 40.43 39.80 39.41 38.05 38.40 39.46 40.66 38.59 38.79 42.02 44.11 44.20 42.92 42.23 42.66 41.30 39.26
49.30 49.51 49.64 49.93 50.04 50.08 49.10 48.38 47.67 47.12 45.86 42.69 39.98 39.11 44.54 46.98 44.70 42.09 37.76 36.46 35.64 34.78 37.73 39.28 40.48 39.91 46.42 40.02 40.43 43.88 41.98 42.53 35.23 37.25 36.96 37.56 35.22 37.41 40.49 39.41 39.51 39.74 39.92 40.89 42.80 44.31 46.28 46.39 45.30 43.25 42.49 42.88 41.84 40.15
49.32 49.42 49.64 49.78 49.82 49.99 48.68 47.91 47.19 44.62 43.06 43.22 42.87 44.84 44.51 41.48 39.05 36.33 34.84 37.91 36.83 35.40 40.68 39.72 41.55 43.40 44.26 46.20 40.84 43.42 38.91 41.07 34.48 43.01 38.12 34.58 36.19 39.44 39.09 39.09 39.69 39.71 39.65 41.47 43.31 44.17 45.82 46.04 46.44 46.46 43.82 42.88 42.62 40.92
49.12 49.05 49.19 49.30 49.77 48.96 48.00 47.18 45.95 45.19 44.42 43.64 41.12 38.16 38.08 37.95 31.95 30.24 30.29 34.56 36.16 41.26 42.61 42.42 39.59 42.12 43.16 44.48 41.70 39.99 36.54 36.10 43.61 38.52 34.91 35.74 38.21 39.48 39.57 39.21 39.29 39.83 39.85 40.74 42.40 44.29 45.23 45.43 46.71 46.77 44.55 43.98 43.50 41.60
48.83 49.07 49.25 49.34 49.19 48.14 47.66 46.27 45.44 44.89 43.37 38.87 36.68 31.57 33.46 32.26 33.38 35.33 36.42 38.60 43.25 43.36 43.10 42.98 41.95 41.00 43.49 40.68 41.42 35.42 39.75 40.88 35.26 33.15 32.85 36.30 37.64 38.13 39.37 39.60 38.33 38.00 39.05 38.77 39.78 42.23 43.44 44.23 45.00 46.44 47.32 45.29 42.97 41.46
48.29 48.80 48.98 48.89 48.34 47.62 46.59 45.95 45.69 44.86 41.83 37.53 37.14 32.75 33.25 38.19 40.48 41.60 43.12 42.81 43.05 43.93 42.71 41.88 43.21 42.72 40.66 38.49 40.50 37.54 34.78 32.36 34.26 32.24 35.71 37.57 38.60 38.67 37.91 38.60 38.67 39.00 39.07 38.18 38.80 40.62 41.83 43.21 44.35 45.20 47.20 46.35 43.99 43.28
48.46 48.48 47.59 48.04 47.50 46.66 46.14 44.96 42.89 42.76 40.25 37.48 37.68 36.27 39.30 37.56 38.27 40.87 42.06 40.54 43.31 42.77 43.69 43.27 40.74 38.74 37.47 37.86 34.47 33.73 32.97 32.04 33.95 37.37 38.55 39.01 38.36 38.47 39.45 39.24 39.07 40.08 40.07 39.71 39.58 40.37 41.17 41.44 42.90 44.64 46.11 47.13 46.34 43.91
47.84 45.88 47.54 47.18 46.50 45.87 44.00 40.96 40.25 37.79 37.64 36.85 36.69 40.52 40.03 39.81 40.16 41.41 42.28 42.43 44.84 41.57 38.60 41.22 35.68 35.56 40.67 35.86 32.15 37.46 34.56 36.13 39.26 40.17 41.27 39.76 39.53 40.39 40.71 39.59 38.58 39.66 40.16 40.50 40.77 41.48 40.01 40.17 42.86 43.22 42.93 45.73 47.28 45.31
45.88 47.55 47.37 46.12 43.80 42.54 40.98 41.56 39.41 37.31 34.68 37.04 36.25 39.11 40.76 42.52 42.02 42.60 43.59 44.31 42.44 41.62 42.20 39.16 42.34 36.80 35.02 32.09 35.23 38.49 39.63 41.58 42.38 42.64 41.72 41.77 41.94 42.94 42.42 39.99 39.31 40.01 41.78 41.49 41.52 41.43 42.00 38.80 38.77 39.76 41.69 44.32 46.22 46.88
46.58 46.03 45.29 44.58 43.22 41.12 38.31 38.71 39.94 35.23 36.30 38.96 39.63 41.54 41.78 42.71 44.68 45.06 44.62 44.38 45.54 45.47 43.03 40.75 37.15 37.09 38.37 40.89 39.73 40.62 41.26 42.69 41.87 42.27 42.61 43.52 43.77 43.06 43.02 42.68 42.57 42.83 42.54 41.06 41.01 40.00 40.62 41.47 38.61 38.64 40.74 41.97 41.75 45.19
45.75 44.46 44.34 45.30 46.04 40.97 37.78 38.45 42.62 38.47 36.72 39.00 40.92 40.09 41.40 41.68 43.76 44.08 43.79 43.34 42.48 41.52 38.82 37.20 39.03 40.74 41.51 42.14 43.35 42.98 43.02 44.44 44.19 41.78 41.66 42.35 42.93 43.45 43.15 42.86 42.75 43.37 42.55 42.16 41.79 38.30 40.62 40.50 40.79 40.09 39.31 40.06 41.70 42.17
43.44 43.93 44.44 44.89 42.47 41.54 41.30 38.90 38.28 39.97 40.44 39.19 40.98 40.76 40.43 42.91 41.62 41.39 41.11 43.61 40.72 39.66 38.50 41.85 41.75 42.76 44.25 44.38 45.07 44.56 43.43 44.09 42.11 42.02 40.53 39.54 41.99 42.31 42.21 42.71 43.00 42.05 41.19 40.23 39.73 39.78 40.00 39.65 39.37 40.54 40.41 39.22 39.71 42.97
41.61 42.74 40.51 41.16 39.78 40.07 39.79 42.11 40.04 41.68 39.83 40.27 39.98 41.28 39.61 38.73 39.61 40.49 43.24 39.50 39.43 41.00 43.45 42.94 42.94 42.82 42.67 42.35 42.92 43.98 44.07 44.18 44.07 40.83 35.47 39.69 40.25 40.27 40.66 41.25 41.14 39.72 40.17 40.04 39.84 39.40 39.99 41.10 40.55 40.40 39.95 39.78 37.85 39.64
43.26 42.67 40.78 40.36 37.11 36.99 36.03 43.04 38.09 39.04 36.57 38.26 40.12 37.93 38.53 39.16 41.10 43.78 38.97 41.22 42.34 44.95 44.68 44.39 44.22 44.78 43.68 43.01 42.24 42.30 43.35 43.92 41.80 41.24 41.54 41.55 41.83 41.66 41.42 41.42 41.21 38.88 38.52 39.80 40.74 40.29 39.90 37.48 40.24 40.32 39.33 38.90 39.12 36.79
44.14 39.94 37.12 36.66 37.28 35.11 39.83 37.19 39.87 39.10 39.46 38.01 36.99 35.67 37.91 39.50 42.49 39.47 36.71 40.09 43.06 43.66 43.52 43.70 43.83 41.96 41.97 41.69 40.61 40.83 42.45 43.76 41.64 41.10 41.36 41.01 40.24 40.52 41.40 41.27 40.81 39.53 39.78 40.43 39.92 39.63 39.76 39.60 37.84 40.34 39.67 37.93 37.89 37.25
35.37 35.43 37.08 33.78 39.01 35.86 34.85 35.37 36.86 37.04 35.53 37.39 36.22 36.59 38.30 41.02 36.48 35.85 36.14 40.54 41.86 41.82 43.22 43.91 43.59 42.54 41.14 41.15 41.01 40.73 42.73 43.91 41.55 39.62 40.49 40.71 40.27 40.62 40.37 40.97 40.44 38.88 39.97 38.80 37.94 38.31 38.27 39.13 39.25 38.71 39.40 38.96 37.09 36.68
31.97 35.10 34.24 34.66 35.99 35.71 36.68 33.73 34.93 35.50 36.83 36.21 37.39 39.90 40.62 37.72 34.35 33.28 38.63 43.18 42.52 42.99 43.53 43.22 42.95 42.49 42.08 42.08 40.42 40.21 40.99 43.35 42.61 39.61 39.60 40.13 39.18 38.23 37.64 37.28 36.97 36.27 39.19 39.22 37.72 37.29 36.89 37.64 37.92 37.77 37.80 38.22 34.78 36.63
31.57 32.91 37.75 41.95 40.14 39.94 38.21 39.53 39.20 37.50 35.88 34.97 37.42 36.65 36.42 31.95 32.11 38.70 43.70 44.93 44.03 45.34 46.09 45.96 44.84 43.51 42.34 41.99 42.31 42.10 42.38 42.61 41.89 40.39 40.90 40.45 39.60 39.33 38.42 36.40 34.73 35.53 39.06 38.72 37.93 37.55 35.88 36.45 36.83 37.10 37.16 38.24 37.67 37.40
36.59 37.98 34.35 37.58 38.21 40.45 35.49 35.82 35.62 35.60 37.14 40.28 39.27 34.82 33.70 33.72 34.51 40.49 43.23 46.19 46.18 46.54 46.21 46.14 46.06 45.04 43.30 42.41 42.21 41.62 41.20 41.27 40.82 41.05 40.95 40.32 40.20 39.47 39.35 39.48 38.91 32.89 37.73 38.58 37.68 37.55 36.27 36.52 36.61 36.46 36.41 36.30 35.94 36.94
36.01 39.43 38.72 35.24 35.85 36.74 37.44 37.14 37.62 40.55 42.53 41.01 37.48 35.94 35.30 37.62 41.28 42.60 44.11 45.43 46.81 45.16 43.92 43.08 42.68 43.49 42.62 42.53 42.36 42.16 42.02 41.76 40.15 37.21 36.27 36.68 36.74 36.68 38.48 38.61 38.51 38.67 38.54 38.46 29.72 32.91 35.09 35.34 35.88 35.86 35.78 35.73 35.11 35.47
36.04 39.72 36.13 36.02 35.14 35.44 38.82 41.53 40.29 42.11 42.94 41.22 39.79 38.40 38.28 39.73 42.72 45.31 44.53 44.00 43.22 42.82 43.16 42.26 42.09 41.46 40.10 39.71 39.00 38.90 40.03 40.13 40.12 38.70 36.44 34.67 34.89 37.05 37.25 37.01 36.99 37.32 37.39 37.26 36.84 36.26 31.82 34.94 33.97 34.68 33.29 32.83 32.02 32.23
39.14 38.74 36.89 36.83 36.43 38.84 40.54 41.67 42.55 42.58 41.94 40.07 40.14 37.88 36.13 38.04 40.74 42.82 43.22 43.80 43.48 43.41 42.05 40.69 40.77 41.30 40.50 39.80 38.97 37.48 35.96 37.69 36.49 35.93 36.41 37.51 37.04 35.93 35.80 35.98 36.58 36.80 36.16 35.67 34.81 33.51 32.15 32.06 31.02 29.80 29.07 28.34 28.37 28.12
37.73 36.67 35.97 33.56 34.27 37.35 40.10 38.65 38.67 37.83 37.15 36.41 35.92 37.06 36.99 36.19 33.66 38.20 40.45 42.17 41.52 40.80 36.80 40.32 40.48 40.32 41.43 41.01 40.35 38.89 35.07 37.48 36.06 34.48 33.55 34.01 33.54 33.55 34.77 35.15 35.55 35.33 34.59 33.77 33.00 31.45 29.56 28.68 27.84 26.87 25.78 25.40 25.24 25.16
36.66 37.17 36.35 34.82 34.10 34.31 36.58 36.58 35.26 34.72 35.52 35.48 35.06 35.98 35.31 34.18 31.21 36.54 41.34 42.95 42.37 41.43 41.11 41.35 41.15 40.67 40.21 38.93 37.67 35.67 33.02 31.81 28.33 27.09 26.96 26.11 25.50 27.30 31.79 32.22 32.88 33.66 33.00 31.54 30.56 29.05 26.97 26.03 25.36 24.52 23.34 22.94 22.62 22.48
MSLP
1017.97 1017.94 1017.94 1017.92 1017.98 1018.12 1018.28 1018.61 1019.09 1019.54 1019.76 1020.15 1020.21 1020.16 1019.91 1020.21 1020.39 1020.33 1019.34 1018.83 1019.05 1017.43 1015.01 1013.85 1012.59 1011.99 1011.53 1010.66 1010.12 1009.45 1008.85 1009.15 1008.90 1008.68 1008.50 1008.09 1007.44 1006.94 1006.88 1007.21 1007.73 1008.55 1008.99 1008.85 1008.82 1008.05 1006.90 1006.42 1006.33 1007.04 1006.45 1005.21 1004.83 1004.07
1017.31 1017.24 1017.26 1017.30 1017.23 1017.30 1017.50 1017.94 1018.38 1018.91 1019.24 1019.66 1019.83 1019.77 1019.52 1019.84 1020.17 1020.31 1019.79 1018.57 1018.63 1018.38 1015.61 1014.14 1013.53 1012.68 1012.27 1011.70 1011.57 1010.47 1010.50 1010.28 1010.57 1010.48 1009.99 1009.55 1009.20 1008.66 1008.28 1008.27 1008.33 1009.37 1010.04 1010.10 1009.82 1008.75 1007.64 1007.26 1007.37 1006.75 1006.12 1005.46 1004.96 1004.21
1016.69 1016.56 1016.57 1016.63 1016.59 1016.62 1016.84 1017.25 1017.79 1018.26 1018.72 1019.21 1019.41 1019.43 1019.19 1019.43 1019.86 1020.08 1019.85 1019.44 1018.79 1017.59 1014.79 1013.04 1011.34 1010.92 1011.64 1011.81 1011.84 1011.65 1011.21 1011.64 1011.65 1011.74 1011.49 1010.70 1009.99 1009.14 1009.14 1009.29 1009.89 1010.34 1010.68 1010.38 1010.20 1008.71 1008.17 1007.69 1007.11 1006.93 1006.40 1005.86 1005.05 1003.93
1015.98 1015.99 1015.89 1015.91 1015.93 1016.02 1016.18 1016.59 1017.22 1017.76 1018.23 1018.74 1018.99 1019.13 1019.16 1019.09 1019.59 1019.78 1019.75 1019.48 1019.20 1018.29 1015.72 1011.58 1010.41 1010.48 1010.79 1011.23 1011.66 1011.93 1012.09 1012.51 1012.70 1012.44 1011.97 1011.44 1010.73 1010.01 1009.76 1009.99 1010.96 1012.01 1011.75 1011.54 1010.43 1008.93 1008.64 1007.80 1007.73 1007.21 1006.50 1005.79 1004.27 1004.07
1015.39 1015.32 1015.32 1015.25 1015.40 1015.38 1015.59 1016.10 1016.74 1017.32 1017.82 1018.32 1018.60 1018.78 1018.87 1018.99 1019.39 1019.51 1019.46 1019.22 1019.02 1018.74 1016.53 1013.52 1011.85 1010.53 1010.15 1010.88 1011.28 1011.68 1012.19 1012.75 1013.05 1012.94 1012.80 1012.04 1011.08 1011.28 1011.08 1011.16 1012.12 1012.73 1012.82 1012.89 1011.50 1010.32 1010.19 1008.34 1007.74 1007.12 1006.16 1004.88 1004.45 1004.10
1014.70 1014.72 1014.70 1014.68 1014.78 1014.98 1015.10 1015.64 1016.30 1016.93 1017.51 1017.95 1018.20 1018.29 1018.60 1018.78 1019.29 1019.59 1019.04 1018.28 1018.36 1018.20 1017.50 1014.60 1011.74 1009.84 1009.81 1010.34 1010.81 1011.15 1011.89 1012.92 1013.50 1013.94 1013.49 1012.49 1012.13 1012.52 1012.39 1012.28 1012.84 1012.80 1012.87 1012.95 1012.24 1011.22 1009.91 1008.24 1007.46 1006.72 1005.85 1004.91 1004.47 1003.76
1014.03 1014.06 1014.00 1014.11 1014.26 1014.41 1014.63 1015.21 1015.93 1016.63 1017.24 1017.65 1017.92 1018.18 1018.41 1018.60 1019.04 1019.23 1018.92 1018.64 1018.40 1018.53 1017.36 1015.09 1011.76 1009.78 1009.64 1009.87 1010.07 1010.80 1011.75 1012.38 1013.21 1013.70 1013.33 1012.67 1012.63 1013.09 1012.84 1012.54 1012.50 1012.56 1012.89 1012.54 1011.80 1010.50 1009.36 1008.23 1006.91 1005.86 1004.92 1004.42 1004.23 1003.66
1013.35 1013.46 1013.47 1013.55 1013.73 1013.82 1014.16 1014.81 1015.59 1016.38 1016.98 1017.42 1017.81 1018.07 1018.60 1018.90 1019.06 1018.81 1018.01 1017.94 1018.21 1017.97 1017.10 1015.43 1012.19 1009.66 1009.14 1008.97 1009.28 1010.38 1011.17 1011.90 1012.54 1012.46 1012.66 1012.60 1013.05 1012.65 1012.43 1012.79 1012.89 1013.47 1013.29 1012.41 1011.55 1010.57 1009.40 1008.06 1006.55 1004.89 1004.42 1004.17 1003.64 1003.02
1012.72 1012.89 1012.95 1013.10 1013.24 1013.39 1013.81 1014.49 1015.33 1016.22 1016.86 1017.37 1017.79 1018.42 1018.88 1018.89 1018.47 1017.70 1017.32 1017.27 1017.84 1018.07 1016.88 1015.08 1011.93 1009.74 1008.89 1008.42 1007.82 1009.10 1009.08 1010.59 1011.70 1012.52 1012.98 1013.44 1012.59 1012.67 1013.04 1013.43 1013.83 1014.09 1013.82 1012.81 1011.44 1010.41 1009.09 1007.85 1005.71 1004.56 1004.08 1004.01 1003.82 1002.63
1012.18 1012.24 1012.45 1012.60 1012.74 1012.97 1013.45 1014.23 1015.22 1016.11 1016.81 1017.53 1018.13 1018.39 1017.97 1017.50 1017.28 1017.50 1017.67 1017.67 1017.66 1017.22 1016.63 1014.12 1011.72 1009.62 1008.23 1007.58 1007.40 1007.65 1008.00 1009.53 1011.34 1012.73 1013.23 1013.08 1012.76 1013.10 1013.56 1014.09 1014.42 1014.16 1013.66 1012.82 1011.66 1009.97 1008.49 1007.03 1005.30 1004.27 1003.96 1004.14 1004.20 1003.44
1011.59 1011.73 1011.93 1012.04 1012.24 1012.54 1013.15 1014.12 1015.15 1016.10 1017.08 1017.50 1017.45 1017.38 1017.33 1017.24 1017.20 1016.78 1016.26 1016.27 1015.97 1015.36 1014.46 1012.47 1010.91 1009.34 1008.22 1007.99 1007.99 1008.10 1008.65 1009.33 1010.40 1012.10 1012.56 1012.15 1012.75 1013.22 1013.70 1014.15 1014.37 1014.08 1013.58 1012.74 1011.49 1010.02 1008.43 1007.13 1005.64 1004.40 1003.98 1003.89 1003.99 1003.62
1010.94 1011.07 1011.27 1011.49 1011.78 1012.23 1013.01 1013.93 1015.03 1015.85 1016.49 1016.76 1016.94 1017.16 1017.14 1016.91 1016.42 1015.80 1014.77 1014.06 1013.53 1012.11 1011.06 1010.12 1009.27 1008.83 1008.41 1008.72 1008.85 1009.04 1009.06 1009.10 1009.52 1010.67 1011.40 1011.84 1012.98 1013.45 1013.91 1014.07 1014.08 1014.09 1013.63 1012.48 1011.26 1009.89 1008.34 1007.17 1005.98 1004.95 1004.34 1003.95 1003.94 1003.91
1010.32 1010.51 1010.67 1010.96 1011.29 1012.02 1012.91 1013.92 1014.86 1015.66 1016.41 1016.80 1016.81 1016.64 1016.36 1016.04 1015.28 1014.16 1012.79 1011.58 1010.28 1009.00 1008.97 1008.54 1008.34 1008.21 1008.71 1008.74 1008.96 1009.16 1009.02 1008.93 1008.78 1009.57 1010.85 1012.53 1013.27 1013.71 1013.99 1014.16 1014.09 1013.95 1013.54 1012.72 1011.46 1010.36 1009.04 1007.82 1006.77 1005.56 1004.63 1004.23 1004.13 1004.27
1009.76 1010.00 1010.22 1010.54 1011.09 1011.97 1012.97 1014.07 1014.99 1015.75 1015.99 1015.92 1015.91 1015.72 1015.00 1013.91 1012.96 1011.66 1010.94 1010.08 1008.29 1007.54 1007.59 1007.49 1007.52 1007.68 1007.98 1008.77 1009.21 1009.28 1009.05 1008.92 1009.32 1010.05 1011.74 1013.24 1013.80 1014.11 1014.26 1014.33 1014.12 1013.79 1013.47 1012.98 1012.09 1010.83 1009.78 1008.64 1007.50 1006.42 1005.47 1004.78 1004.34 1004.53
1009.32 1009.57 1009.84 1010.32 1011.08 1012.00 1013.21 1014.28 1015.15 1015.66 1015.51 1015.38 1015.16 1013.95 1013.08 1011.88 1011.07 1010.63 1010.18 1008.84 1007.79 1007.25 1007.28 1007.16 1006.89 1007.44 1008.45 1009.14 1009.62 1009.85 1009.48 1009.79 1010.59 1011.89 1012.96 1013.77 1014.01 1014.25 1014.39 1014.21 1014.07 1013.72 1013.41 1013.12 1012.59 1011.50 1010.53 1009.37 1008.21 1007.10 1006.22 1005.26 1004.87 1004.61
1008.99 1009.42 1009.86 1010.38 1011.31 1012.42 1013.62 1014.75 1015.65 1015.69 1015.44 1015.12 1014.33 1012.95 1011.72 1011.29 1010.53 1009.51 1008.49 1007.91 1007.80 1007.49 1007.28 1007.03 1006.81 1007.34 1008.21 1009.34 1009.83 1010.07 1010.32 1010.84 1012.05 1012.81 1013.44 1013.80 1014.11 1014.47 1014.46 1014.38 1014.09 1013.66 1013.21 1012.96 1012.57 1011.89 1011.04 1010.20 1008.97 1007.70 1007.00 1006.13 1005.34 1005.06
1008.76 1009.07 1009.69 1010.65 1011.83 1013.10 1014.11 1015.14 1015.62 1015.47 1014.93 1014.13 1012.63 1011.84 1011.32 1010.66 1009.77 1008.25 1007.64 1007.36 1007.61 1007.47 1006.95 1006.61 1007.00 1007.69 1008.67 1008.99 1009.99 1010.62 1011.31 1011.84 1012.15 1012.39 1013.11 1013.61 1013.74 1013.82 1013.68 1013.89 1013.98 1013.59 1013.06 1012.67 1012.32 1011.74 1011.42 1010.94 1009.90 1008.66 1007.72 1006.84 1006.00 1005.30
1008.47 1008.97 1009.73 1010.96 1012.22 1013.66 1014.67 1014.78 1014.63 1014.44 1013.78 1012.82 1011.99 1011.16 1010.91 1009.99 1008.91 1007.92 1007.67 1007.87 1007.88 1007.25 1006.94 1007.03 1007.36 1007.72 1008.48 1009.23 1009.70 1010.69 1011.14 1011.24 1011.55 1011.97 1012.63 1013.21 1013.20 1012.78 1013.08 1013.61 1013.75 1013.15 1012.43 1012.37 1012.09 1011.65 1011.21 1011.21 1010.55 1009.85 1009.05 1008.04 1006.91 1006.14
1008.21 1009.03 1010.02 1010.99 1011.96 1013.02 1013.92 1014.38 1014.18 1013.40 1012.35 1011.78 1011.37 1011.04 1010.49 1009.34 1008.32 1007.83 1007.87 1008.11 1008.09 1007.77 1007.59 1007.63 1007.67 1007.82 1008.58 1009.29 1009.58 1010.06 1010.59 1010.70 1010.76 1011.43 1012.10 1012.48 1012.35 1012.40 1012.72 1012.81 1012.61 1012.34 1012.20 1012.31 1012.14 1012.01 1011.63 1011.15 1011.45 1011.05 1010.09 1009.15 1008.20 1007.16
1008.89 1009.89 1010.70 1011.36 1011.91 1012.38 1012.89 1013.18 1013.07 1012.51 1011.55 1011.13 1010.79 1010.49 1009.82 1009.03 1008.48 1008.19 1008.20 1008.33 1008.32 1008.14 1007.93 1007.80 1007.54 1008.13 1008.82 1009.42 1009.91 1010.12 1010.41 1010.62 1010.45 1010.77 1011.48 1011.52 1011.86 1011.90 1012.18 1012.23 1012.15 1011.96 1011.90 1011.95 1011.85 1012.04 1011.75 1011.46 1011.40 1011.13 1010.91 1010.28 1009.22 1008.16
1010.34 1011.13 1011.58 1011.94 1012.41 1012.34 1011.71 1011.42 1011.49 1011.16 1010.54 1010.19 1009.93 1009.71 1009.05 1008.53 1008.23 1008.15 1008.28 1008.30 1008.29 1007.93 1007.95 1008.01 1008.63 1009.39 1009.88 1010.16 1010.32 1010.66 1011.13 1011.02 1011.27 1011.46 1011.75 1011.79 1011.72 1011.78 1011.83 1011.91 1011.90 1012.02 1012.05 1012.20 1012.03 1011.87 1011.61 1011.84 1012.02 1011.67 1011.11 1011.06 1010.65 1009.30
1010.67 1011.35 1012.15 1012.53 1012.23 1011.95 1011.51 1011.02 1010.89 1010.55 1010.34 1009.58 1009.08 1008.92 1008.46 1008.12 1007.81 1007.91 1008.03 1008.35 1008.15 1008.22 1008.14 1008.28 1009.20 1010.09 1010.43 1010.93 1011.10 1011.15 1011.62 1011.71 1011.79 1012.19 1012.41 1012.24 1012.04 1012.07 1012.07 1012.20 1012.28 1012.53 1012.55 1012.67 1012.59 1012.41 1012.15 1012.03 1012.22 1012.05 1011.92 1011.58 1011.36 1010.63
1010.70 1011.42 1011.91 1012.01 1011.90 1011.57 1011.21 1010.41 1010.48 1010.03 1009.44 1008.91 1008.53 1008.27 1007.74 1007.55 1007.23 1007.60 1007.86 1007.85 1008.38 1008.94 1009.05 1008.99 1009.84 1010.07 1010.64 1011.55 1011.94 1011.98 1011.92 1011.64 1011.87 1012.16 1012.28 1012.20 1012.35 1012.57 1012.48 1012.59 1012.93 1013.41 1013.31 1013.18 1013.17 1012.93 1012.63 1012.49 1012.14 1012.14 1012.33 1012.11 1011.71 1011.49
1010.70 1011.08 1011.18 1011.15 1010.91 1010.40 1010.17 1009.88 1009.57 1008.98 1008.50 1008.15 1007.99 1007.46 1007.12 1007.16 1007.69 1007.69 1007.71 1008.28 1008.92 1009.30 1008.98 1009.59 1009.95 1010.72 1011.34 1011.66 1011.69 1011.94 1012.05 1011.96 1012.42 1012.84 1012.98 1012.78 1012.72 1012.87 1012.91 1012.97 1013.54 1014.18 1014.13 1013.85 1013.80 1013.61 1013.28 1012.95 1012.63 1012.37 1012.44 1012.47 1012.33 1012.11
1010.59 1010.76 1010.51 1009.99 1009.50 1009.26 1008.94 1008.77 1008.40 1007.91 1007.49 1007.37 1007.29 1007.12 1007.61 1007.91 1008.08 1007.95 1007.62 1007.97 1008.58 1008.82 1008.98 1009.55 1009.71 1010.31 1010.71 1010.91 1011.72 1012.49 1012.67 1012.13 1012.37 1013.05 1013.52 1013.55 1013.47 1013.29 1013.42 1013.49 1014.02 1014.93 1014.85 1014.56 1014.42 1014.17 1013.95 1013.71 1013.34 1013.10 1012.70 1012.57 1012.87 1012.62
1009.44 1009.31 1009.22 1008.50 1008.14 1008.00 1007.68 1007.67 1007.55 1007.26 1007.02 1006.93 1007.01 1007.21 1007.73 1008.10 1008.17 1007.68 1007.31 1007.71 1008.17 1008.48 1008.81 1009.09 1009.16 1009.54 1010.14 1010.95 1011.84 1012.52 1012.93 1012.92 1013.06 1013.60 1014.08 1014.20 1014.47 1014.43 1014.40 1014.48 1014.79 1015.48 1015.68 1015.33 1015.20 1014.83 1014.67 1014.34 1014.01 1013.69 1013.26 1012.88 1013.05 1013.08
1008.58 1008.21 1007.76 1007.53 1007.32 1006.89 1006.96 1006.97 1007.06 1006.98 1006.45 1006.30 1006.90 1007.60 1007.94 1008.57 1008.59 1008.73 1008.08 1007.99 1008.17 1008.52 1008.76 1008.79 1008.91 1009.50 1010.31 1011.22 1012.47 1013.27 1013.67 1013.85 1013.87 1014.42 1014.69 1014.93 1015.34 1015.51 1015.48 1015.62 1016.09 1016.67 1016.21 1015.97 1015.85 1015.55 1015.47 1015.03 1014.70 1014.39 1014.07 1013.62 1013.66 1013.51
1007.58 1006.98 1007.02 1007.09 1007.05 1007.20 1007.22 1007.12 1006.97 1006.52 1006.03 1006.02 1006.88 1007.54 1008.15 1008.92 1009.80 1009.53 1008.89 1008.63 1008.41 1008.75 1008.86 1009.11 1009.59 1010.34 1011.28 1012.38 1013.14 1013.78 1014.21 1014.71 1015.07 1014.98 1015.04 1015.39 1015.74 1016.05 1016.17 1016.23 1016.61 1016.77 1016.68 1016.49 1016.47 1016.28 1016.27 1015.84 1015.47 1015.18 1014.86 1014.50 1014.58 1014.41
1007.16 1007.02 1007.31 1007.64 1007.83 1007.70 1007.29 1006.76 1006.12 1005.79 1005.68 1006.00 1007.06 1008.30 1009.26 1010.28 1010.43 1009.68 1009.38 1009.25 1009.04 1009.38 1009.52 1010.20 1011.11 1011.86 1012.67 1013.29 1014.01 1014.37 1014.76 1014.59 1014.23 1014.73 1014.95 1015.15 1015.70 1016.33 1016.70 1016.78 1016.78 1016.73 1016.78 1016.66 1017.12 1017.06 1016.93 1016.62 1016.30 1016.15 1015.80 1015.51 1015.65 1015.39
1007.21 1007.54 1007.77 1007.83 1007.74 1007.45 1007.13 1006.68 1006.71 1006.79 1006.91 1007.64 1008.54 1009.51 1010.09 1010.41 1010.26 1010.00 1009.84 1009.83 1009.78 1009.95 1010.53 1011.31 1011.90 1012.56 1013.06 1013.70 1014.56 1015.41 1016.01 1016.38 1016.40 1016.41 1016.27 1016.66 1017.00 1017.31 1017.48 1017.48 1017.44 1017.40 1017.44 1017.28 1017.15 1017.22 1017.42 1016.95 1016.98 1016.99 1016.92 1016.75 1016.78 1016.59
1007.24 1007.52 1007.67 1007.97 1008.13 1008.05 1007.57 1007.55 1007.39 1007.65 1007.93 1008.46 1009.24 1009.91 1010.64 1011.01 1011.18 1011.24 1011.01 1010.83 1010.83 1011.11 1011.58 1012.00 1012.36 1012.66 1013.16 1013.84 1014.58 1015.26 1016.18 1017.21 1017.86 1018.14 1018.19 1017.88 1018.03 1018.42 1018.42 1018.23 1018.10 1018.18 1018.22 1018.11 1018.11 1018.28 1018.51 1018.23 1018.38 1018.47 1018.39 1018.21 1018.06 1017.80
1007.36 1007.49 1007.60 1008.39 1009.07 1009.36 1009.03 1009.04 1008.99 1009.49 1010.01 1010.26 1010.64 1011.18 1011.60 1011.87 1012.61 1012.78 1013.12 1012.22 1011.70 1011.73 1012.32 1012.29 1012.74 1013.31 1014.05 1014.89 1015.64 1016.34 1016.71 1017.64 1018.56 1019.37 1019.75 1019.62 1019.72 1019.67 1019.13 1018.84 1018.83 1019.03 1019.00 1019.09 1019.13 1019.41 1019.70 1019.70 1019.76 1019.80 1019.82 1019.70 1019.46 1019.16
1007.64 1007.95 1008.28 1008.80 1009.40 1009.69 1009.86 1010.03 1010.34 1010.71 1011.07 1011.42 1011.97 1012.31 1012.72 1013.14 1014.02 1014.40 1013.97 1013.53 1012.85 1012.60 1012.89 1013.46 1014.07 1014.78 1015.52 1016.30 1017.15 1017.99 1018.91 1019.88 1020.87 1021.26 1021.34 1021.47 1021.51 1021.07 1020.12 1019.98 1019.99 1019.67 1019.71 1020.12 1020.34 1020.59 1020.86 1020.92 1020.93 1020.97 1021.02 1020.92 1020.70 1020.41
Wind_Speed
15 16 17 17 18 18 19 18 16 13 13 11 10 14 7 4 3 4 5 3 2 5 14 11 11 10 9 7 9 11 6 2 4 4 4 4 6 6 7 10 2 1 2 3 3 4 5 22 13 9 11 19 23 23
15 15 16 16 17 18 19 19 18 15 14 12 12 14 11 7 3 3 3 2 3 5 9 17 18 17 15 10 7 5 7 7 6 4 4 4 4 6 9 4 5 3 4 3 2 5 17 14 15 16 18 22 23 26
15 15 14 15 16 16 17 19 18 15 15 12 12 13 12 10 6 5 3 3 6 6 10 9 10 13 10 10 6 4 4 6 5 6 5 3 5 5 3 4 6 2 9 4 10 5 15 17 14 18 22 24 27 22
14 15 14 14 14 15 16 19 18 16 15 13 13 12 13 11 7 6 2 2 4 5 6 1 5 3 9 6 7 6 2 3 5 5 4 4 4 4 5 6 4 4 9 12 13 13 18 13 21 23 27 27 23 24
14 14 13 13 14 13 15 18 18 16 15 13 12 13 12 11 6 4 3 4 7 3 5 8 16 16 9 10 8 6 3 2 2 2 2 4 4 4 5 5 2 2 3 2 8 18 16 23 23 24 25 22 24 25
14 14 12 12 12 12 15 17 18 16 14 13 12 13 9 12 6 1 3 5 8 4 4 5 8 3 10 8 9 9 5 4 1 2 3 4 2 2 1 3 2 7 7 8 7 16 23 24 19 25 23 26 24 26
14 13 12 12 12 11 14 18 18 16 14 12 10 9 14 13 4 3 3 2 9 5 3 5 5 5 13 12 9 3 7 3 3 3 4 4 1 1 1 2 10 14 13 15 16 16 21 22 24 20 18 19 23 24
13 12 11 12 12 11 16 20 18 15 12 9 4 12 10 6 1 4 5 11 4 3 2 4 6 5 9 7 6 5 5 6 5 3 2 1 1 5 1 9 13 15 16 14 16 18 19 21 23 16 16 16 24 24
13 12 11 11 11 10 17 20 18 14 11 5 13 13 3 3 3 3 7 9 3 2 2 3 4 0 7 10 4 10 9 6 3 3 1 1 3 3 8 13 14 13 10 16 20 21 20 22 23 17 17 18 23 24
13 11 11 11 10 11 18 20 18 14 13 18 4 3 3 3 4 11 3 5 4 3 4 5 8 7 4 4 3 3 5 5 3 1 1 4 3 4 8 8 9 11 13 15 16 19 20 22 20 18 17 16 20 22
13 12 12 11 10 12 20 21 20 20 16 3 3 2 1 1 3 3 4 4 4 4 5 6 11 7 4 3 3 3 2 2 2 4 3 3 3 6 9 10 9 11 13 15 15 17 19 20 22 17 18 18 17 21
12 12 12 11 11 16 24 24 25 7 4 4 3 1 1 2 3 4 4 4 6 5 7 7 8 6 3 1 2 2 2 3 3 9 3 3 4 8 9 11 12 12 14 16 16 18 20 21 20 21 17 15 14 18
12 11 11 11 14 24 26 27 18 18 10 2 2 4 3 4 4 5 5 5 5 5 6 5 5 5 3 2 1 3 4 1 3 3 3 4 7 8 10 11 13 13 14 16 17 18 20 21 23 21 18 15 14 14
11 10 10 12 21 26 27 26 24 15 2 3 4 5 5 6 6 6 6 6 3 2 6 5 6 4 3 2 1 2 3 2 3 3 4 5 8 8 10 10 11 14 14 15 17 18 19 20 18 20 19 15 15 11
10 9 11 16 25 27 28 26 20 1 3 3 4 5 7 6 5 6 7 9 1 2 1 3 1 3 3 1 1 3 2 2 4 3 2 5 7 8 9 10 12 12 12 12 14 15 16 18 18 17 18 14 14 14
10 9 4 24 26 28 27 17 3 0 1 2 4 5 2 2 6 9 8 4 2 3 2 4 3 4 3 4 3 1 3 2 2 2 2 3 6 6 5 7 10 12 11 8 10 13 14 17 18 15 17 17 16 17
11 2 24 26 29 27 20 4 2 4 4 4 5 6 3 4 6 6 3 3 2 3 5 3 1 3 2 2 2 2 2 1 3 3 2 3 5 6 7 9 10 12 12 12 13 12 12 15 15 16 17 18 19 14
2 15 30 33 22 12 2 2 3 4 6 6 4 4 7 8 8 5 3 3 3 4 3 1 2 3 2 4 3 3 4 5 3 2 5 2 4 5 7 8 8 9 10 11 12 12 11 12 15 13 16 16 15 15
14 20 35 29 12 5 4 4 3 4 7 2 6 5 9 7 5 3 4 3 3 5 1 2 1 2 4 1 5 5 4 2 3 6 4 2 1 4 6 5 6 7 9 11 11 10 10 10 8 10 12 12 12 12
30 31 26 20 6 3 5 4 5 3 3 4 4 7 8 7 4 3 3 4 4 3 2 2 2 6 5 5 4 3 5 2 1 6 3 5 3 5 6 5 6 8 8 9 9 8 9 10 11 9 9 13 12 13
19 13 14 4 1 2 3 4 4 3 3 4 6 8 6 6 6 4 4 3 3 2 3 1 7 6 7 5 5 5 4 5 5 5 5 5 4 5 6 7 8 8 8 9 10 10 10 10 11 10 10 10 13 12
6 10 3 1 1 2 2 2 2 3 3 3 7 7 5 7 7 6 5 4 4 3 2 5 8 6 6 6 4 6 5 5 6 5 4 4 5 5 6 7 8 8 8 9 9 10 10 10 9 10 10 9 9 12
11 3 3 3 2 3 3 5 4 4 4 4 7 4 5 7 5 6 4 3 3 2 3 6 8 6 10 8 6 5 3 1 5 5 3 4 5 5 5 6 8 8 8 9 9 9 10 11 10 11 10 10 11 10
5 4 5 6 6 5 5 5 5 5 4 6 6 4 7 4 5 4 4 4 5 5 5 9 7 8 7 8 7 6 3 4 5 5 4 4 4 5 5 6 8 8 8 8 9 9 10 10 11 11 11 11 13 10
5 5 3 4 5 6 6 6 5 4 5 6 8 4 3 3 3 5 5 6 7 7 8 8 8 8 7 6 7 5 3 1 5 6 4 5 5 4 5 5 9 9 9 9 9 10 11 11 11 13 13 12 15 15
3 5 7 7 5 6 7 7 7 7 5 7 5 4 3 4 5 4 5 7 7 7 8 8 8 8 8 8 7 5 3 3 4 6 5 6 6 6 6 6 7 8 8 8 9 11 12 12 12 15 14 15 11 14
4 5 5 6 4 4 3 3 5 4 6 5 6 5 5 4 3 2 3 4 6 5 7 7 6 6 7 9 8 5 4 4 7 6 5 6 6 6 6 7 8 7 7 9 9 10 12 12 12 13 13 12 13 13
5 4 6 5 3 2 4 3 5 6 5 4 7 6 7 2 3 2 2 1 5 6 6 4 7 8 10 8 6 5 6 6 5 4 5 6 6 6 6 6 5 4 5 6 8 9 11 10 11 12 13 12 12 13
3 2 6 5 4 3 5 6 4 2 2 5 6 3 4 3 3 3 4 3 4 6 7 9 9 9 8 7 6 7 7 6 4 6 3 5 5 6 6 6 6 7 7 7 5 7 12 11 9 10 13 11 12 12
5 5 3 6 4 2 2 1 4 6 8 8 7 10 10 7 4 3 5 4 5 6 8 9 8 7 7 7 7 7 6 6 7 7 6 6 4 6 6 6 6 7 7 8 9 11 9 9 10 11 12 11 11 11
7 5 4 3 3 3 6 5 5 8 7 11 11 10 11 8 8 7 5 3 5 7 8 8 7 7 7 7 6 7 8 7 8 8 6 4 6 6 5 5 6 6 7 8 9 10 11 10 10 12 13 14 15 14
5 5 4 4 3 3 4 3 4 5 5 8 9 9 8 6 4 3 7 7 5 6 5 6 7 7 10 9 9 10 11 10 9 8 10 7 7 6 6 6 6 5 7 8 9 10 11 12 10 11 12 14 15 15
3 3 3 4 3 3 3 4 3 2 3 3 2 2 3 3 4 2 4 7 2 5 7 8 10 10 12 13 10 10 11 10 11 9 9 9 9 8 6 7 6 6 7 7 8 8 10 11 10 11 12 12 13 14
Wind_Direction
263 261 258 254 248 238 228 215 213 228 230 245 265 279 235 198 273 298 301 264 279 278 289 289 301 284 285 278 310 3 308 12 308 301 319 345 324 325 349 342 46 249 315 279 302 281 282 2 356 353 302 311 325 318
264 261 258 256 250 241 229 214 210 217 221 234 258 272 266 180 221 292 273 221 195 255 274 316 286 272 273 291 311 295 347 13 29 329 343 333 330 311 332 303 22 34 15 282 313 302 317 347 333 329 321 318 318 312
265 264 261 256 253 247 230 211 210 214 216 225 249 280 287 172 191 219 290 320 309 274 274 231 250 223 213 232 243 289 31 350 24 351 331 289 282 282 300 324 339 87 31 302 337 308 327 323 325 322 327 316 309 316
264 264 261 259 254 245 230 209 209 212 212 223 242 269 297 159 182 232 235 276 286 277 277 338 99 167 183 191 202 224 250 23 320 312 296 277 268 340 310 317 75 7 309 341 289 294 340 310 318 329 311 310 313 324
263 262 261 259 258 248 224 206 203 209 206 222 237 260 269 155 184 257 267 248 265 269 317 309 310 263 197 177 197 197 219 286 327 294 297 271 314 351 3 333 67 308 316 308 283 316 303 301 308 312 316 326 337 321
261 259 257 255 253 250 220 200 197 200 204 218 241 257 200 151 150 234 263 199 225 211 282 291 344 269 191 172 201 194 172 140 115 350 286 278 17 55 303 304 152 284 348 297 284 295 291 297 322 313 307 335 323 312
260 258 254 253 249 243 211 193 191 191 203 219 241 277 159 155 157 202 293 320 314 316 252 283 282 249 195 196 209 107 159 175 184 206 233 259 96 313 199 262 346 347 334 321 302 313 318 317 313 308 321 327 327 321
259 257 255 250 244 236 198 187 183 189 202 205 256 147 148 147 355 274 238 258 231 255 266 273 268 236 201 231 197 159 186 181 188 241 242 278 222 223 223 350 344 348 328 312 325 317 308 315 311 326 333 347 330 331
256 250 248 248 241 222 189 180 176 177 182 177 138 130 131 224 217 242 222 212 166 296 271 246 264 255 192 241 249 179 180 182 112 194 236 213 227 51 347 342 334 333 317 305 317 318 315 310 317 341 348 350 334 333
250 247 250 244 232 210 182 169 163 167 149 132 144 182 213 195 210 125 184 165 188 205 223 257 271 267 257 354 252 217 190 159 196 143 163 225 93 76 26 0 333 323 320 320 321 317 316 330 340 352 353 359 343 342
240 237 242 235 219 193 168 156 152 139 133 198 181 215 75 343 190 222 197 210 168 218 213 242 249 281 244 304 300 340 3 221 174 162 240 186 107 36 10 351 350 337 330 323 313 316 322 340 336 354 356 355 351 347
238 236 232 221 203 175 156 151 147 135 151 148 114 77 166 221 221 248 214 209 194 231 186 225 206 228 97 40 278 326 260 241 234 149 222 115 53 36 7 352 353 353 337 331 334 331 340 344 343 346 1 357 3 353
238 234 224 203 178 159 153 151 144 121 120 134 193 175 201 172 223 222 209 205 214 203 167 206 172 189 149 249 212 234 243 223 243 202 88 65 39 21 3 353 348 351 348 345 340 342 345 343 343 346 4 2 6 4
230 221 207 186 163 155 150 147 143 144 173 181 171 189 225 184 232 210 241 296 226 200 152 210 155 201 128 138 96 280 292 281 266 183 73 68 16 357 357 349 344 347 347 350 344 342 346 341 341 345 352 3 3 25
213 203 182 166 154 149 148 147 150 178 198 191 202 220 215 246 250 260 276 261 296 57 137 223 183 126 132 139 252 319 256 291 19 54 49 25 345 8 352 345 338 343 346 350 340 342 340 340 341 345 344 0 20 14
183 156 142 149 147 142 141 128 76 288 151 239 234 246 211 242 258 258 214 181 141 233 242 274 212 168 121 125 202 289 335 28 76 64 28 328 356 354 334 339 338 337 340 344 340 338 345 344 338 344 349 352 4 14
146 153 150 141 135 133 120 94 143 193 219 228 232 227 216 242 247 262 200 137 133 220 223 195 196 120 126 160 112 28 9 91 171 164 130 21 334 335 354 2 348 342 337 347 346 347 4 345 340 352 353 351 348 25
127 144 138 131 124 106 68 190 186 186 227 233 250 218 216 254 275 218 87 94 223 244 321 11 39 172 219 152 140 149 154 177 102 95 78 17 341 325 28 22 348 328 337 3 349 352 3 2 356 353 342 345 342 357
148 143 137 134 127 119 142 170 221 225 220 242 222 211 226 259 296 162 119 117 340 346 4 217 345 274 91 78 111 127 117 183 97 95 106 193 265 10 43 26 335 358 12 13 2 7 350 7 21 349 346 340 339 353
137 135 132 130 129 123 139 161 190 248 215 205 204 221 232 233 211 160 157 177 188 205 189 216 17 51 120 99 96 99 96 173 296 108 71 84 33 31 52 21 5 18 18 17 15 29 359 6 5 357 352 344 343 341
116 126 111 84 89 273 236 159 177 222 232 201 197 213 217 210 198 170 187 194 206 239 130 72 90 82 100 128 96 97 80 49 76 52 34 46 21 28 30 21 28 24 24 17 10 8 11 18 11 349 356 1 346 337
104 95 95 291 159 220 208 207 191 194 223 254 191 196 201 198 191 190 155 198 195 185 38 120 113 135 123 121 102 65 108 115 116 124 228 180 42 28 27 26 28 25 22 22 12 7 6 10 20 8 3 355 0 350
105 89 105 152 174 190 233 177 193 213 222 197 178 200 197 188 193 141 190 168 102 130 222 115 135 159 106 105 116 120 121 132 93 63 43 41 67 36 29 42 46 29 10 21 15 6 4 357 16 21 13 1 2 359
129 134 162 180 196 181 179 187 205 215 204 177 183 207 171 150 147 196 192 158 130 192 175 134 146 123 144 162 159 141 147 97 115 85 27 13 34 49 31 46 59 34 7 13 15 6 8 2 3 10 18 13 6 6
133 173 199 191 211 184 183 183 200 207 182 179 188 163 104 135 158 206 222 151 154 192 151 178 165 163 170 150 110 113 262 49 93 93 50 47 10 32 36 39 75 48 5 13 10 5 9 3 8 4 5 24 14 3
155 174 187 198 182 183 194 169 184 187 185 182 173 131 114 162 199 216 183 139 159 184 161 190 183 165 159 136 131 122 111 57 98 94 59 57 43 28 30 28 24 37 358 17 5 2 7 359 7 5 2 6 29 15
167 196 191 204 204 212 149 148 151 194 191 180 144 146 169 151 204 53 110 125 147 164 177 202 172 152 134 108 100 111 89 52 55 85 77 75 67 43 38 38 40 11 343 21 7 11 5 357 4 2 1 2 14 5
227 194 168 182 121 107 100 116 171 205 204 162 147 180 174 157 100 318 107 202 148 160 176 139 111 106 97 108 117 138 120 109 126 141 133 116 96 63 38 41 49 266 323 28 13 17 8 356 4 2 360 5 9 355
174 84 110 132 106 199 208 207 202 156 213 171 155 92 110 85 173 180 149 132 151 149 129 111 97 99 106 101 79 53 20 353 194 148 172 112 58 51 33 21 16 13 16 6 96 39 12 349 20 10 4 11 13 353
141 148 138 176 176 166 119 79 92 80 77 89 98 106 109 117 115 136 123 148 140 126 120 123 127 141 144 136 111 94 76 52 38 37 48 63 47 35 21 15 13 11 8 4 4 18 8 357 22 16 14 14 15 357
139 175 147 148 81 81 100 101 96 75 77 109 116 113 108 110 83 38 39 82 121 133 137 141 160 153 144 139 137 154 114 100 85 62 32 29 46 39 17 5 18 22 9 10 16 25 11 13 23 17 13 13 11 8
159 195 161 119 108 43 48 45 63 90 91 106 112 124 135 104 71 63 359 330 173 152 132 148 126 103 88 85 89 66 63 73 57 46 27 27 35 11 355 12 28 23 23 17 24 31 19 18 22 22 15 13 10 8
125 97 103 109 119 124 135 101 95 87 90 91 79 59 76 80 94 43 5 354 17 123 107 102 97 85 84 84 92 83 79 86 86 82 75 57 37 6 8 19 1 8 53 45 33 39 30 22 22 24 21 15 13 10